Location: Cahas Mountain Overlook
(37.0833°N, 80.1000°W)
Time: 00:26:07
(UTC-05:00)

Altair - All Passes

Search period start: 29 November 2023 00:00
Search period end: 09 December 2023 00:00
Orbit: 1501 x 1682 km, 47.2° (Epoch: 28 November)

Date Brightness Start Highest point End Pass type
(mag) Time Alt. Az. Time Alt. Az. Time Alt. Az.
29 Nov - 08:26:15 10° SSW 08:35:12 43° SE 08:43:51 10° ENE daylight
29 Nov - 10:30:01 10° WSW 10:39:36 73° NNW 10:48:53 10° ENE daylight
29 Nov - 12:36:35 10° WNW 12:45:30 45° N 12:54:13 10° ENE daylight
29 Nov - 14:42:33 10° WNW 14:51:39 58° NNE 15:00:40 10° E daylight
29 Nov - 16:47:29 10° WNW 16:56:28 62° SW 17:05:29 10° SE daylight
29 Nov - 18:55:13 10° W 18:59:45 15° WSW 19:04:21 10° SSW visible
30 Nov - 08:01:17 10° SSW 08:10:04 39° SE 08:18:34 10° ENE daylight
30 Nov - 10:04:43 10° WSW 10:14:23 77° NNW 10:23:43 10° ENE daylight
30 Nov - 12:11:12 10° WNW 12:20:10 46° N 12:28:56 10° ENE daylight
30 Nov - 14:17:18 10° WNW 14:26:23 56° NNE 14:35:21 10° E daylight
30 Nov - 16:22:15 10° WNW 16:31:19 67° SW 16:40:24 10° SE daylight
30 Nov - 18:29:24 10° W 18:34:42 17° SW 18:40:03 10° SSW visible
01 Dec - 07:36:21 10° SSW 07:44:57 36° SE 07:53:16 10° ENE daylight
01 Dec - 09:39:26 10° WSW 09:49:08 81° NNW 09:58:31 10° ENE daylight
01 Dec - 11:45:50 10° W 11:54:51 47° N 12:03:39 10° ENE daylight
01 Dec - 13:52:02 10° WNW 14:01:07 54° NNE 14:10:02 10° E daylight
01 Dec - 15:57:02 10° WNW 16:06:10 72° SW 16:15:18 10° SE daylight
01 Dec - 18:03:44 10° W 18:09:38 19° SW 18:15:36 10° SSW visible
02 Dec - 07:11:28 10° S 07:19:50 33° SE 07:27:55 10° ENE daylight
02 Dec - 09:14:09 10° WSW 09:23:55 86° NNW 09:33:20 10° ENE daylight
02 Dec - 11:20:27 10° W 11:29:33 47° N 11:38:23 10° ENE daylight
02 Dec - 13:26:46 10° WNW 13:35:50 52° NNE 13:44:42 10° E daylight
02 Dec - 15:31:48 10° WNW 15:41:00 77° SW 15:50:10 10° SE daylight
02 Dec - 17:38:08 10° W 17:44:35 22° SW 17:51:02 10° S visible
03 Dec - 06:46:37 10° S 06:54:42 30° SE 07:02:33 10° ENE visible
03 Dec - 08:48:54 10° SW 08:58:42 90° SE 09:08:08 10° ENE daylight
03 Dec - 10:55:04 10° W 11:04:14 49° NNW 11:13:08 10° ENE daylight
03 Dec - 13:01:30 10° WNW 13:10:32 50° NNE 13:19:23 10° E daylight
03 Dec - 15:06:35 10° WNW 15:15:51 82° SW 15:25:01 10° SE daylight
03 Dec - 17:12:38 10° WNW 17:19:30 24° SW 17:26:25 10° S daylight
04 Dec - 06:21:50 10° S 06:29:35 27° SE 06:37:08 10° ENE visible
04 Dec - 08:23:41 10° SW 08:33:30 85° SE 08:42:56 10° ENE daylight
04 Dec - 10:29:40 10° W 10:38:55 50° NNW 10:47:53 10° ENE daylight
04 Dec - 12:36:12 10° WNW 12:45:14 49° NNE 12:54:03 10° E daylight
04 Dec - 14:41:22 10° WNW 14:50:40 88° SSW 14:59:51 10° SE daylight
04 Dec - 16:47:11 10° WNW 16:54:26 27° SW 17:01:42 10° S daylight
05 Dec - 05:57:06 10° S 06:04:29 24° SE 06:11:40 10° ENE visible
05 Dec - 07:58:28 10° SW 08:08:17 80° SE 08:17:45 10° ENE daylight
05 Dec - 10:04:17 10° W 10:13:37 52° NNW 10:22:39 10° ENE daylight
05 Dec - 12:10:54 10° WNW 12:19:56 48° N 12:28:44 10° E daylight
05 Dec - 14:16:08 10° WNW 14:25:28 87° NNE 14:34:40 10° ESE daylight
05 Dec - 16:21:46 10° WNW 16:29:21 30° SW 16:36:57 10° S daylight
06 Dec - 05:32:26 10° S 05:39:23 22° SE 05:46:09 10° E visible
06 Dec - 07:33:16 10° SW 07:43:05 75° SE 07:52:32 10° ENE daylight
06 Dec - 09:38:53 10° W 09:48:19 54° NNW 09:57:25 10° ENE daylight
06 Dec - 11:45:35 10° WNW 11:54:37 47° N 12:03:24 10° E daylight
06 Dec - 13:50:56 10° WNW 14:00:17 83° NNE 14:09:27 10° ESE daylight
06 Dec - 15:56:23 10° WNW 16:04:15 33° SW 16:12:08 10° S daylight
07 Dec - 05:07:52 10° SSE 05:14:17 19° SE 05:20:33 10° E visible
07 Dec - 07:08:05 10° SW 07:17:53 70° SE 07:27:20 10° ENE daylight
07 Dec - 09:13:31 10° W 09:23:01 56° NNW 09:32:12 10° ENE daylight
07 Dec - 11:20:15 10° WNW 11:29:18 46° N 11:38:06 10° ENE daylight
07 Dec - 13:25:42 10° WNW 13:35:04 78° NNE 13:44:14 10° ESE daylight
07 Dec - 15:31:02 10° WNW 15:39:10 37° SW 15:47:17 10° SSE daylight
08 Dec - 04:43:23 10° SSE 04:49:11 17° SE 04:54:52 10° E visible
08 Dec - 06:42:57 10° SW 06:52:43 65° SE 07:02:07 10° ENE visible
08 Dec - 08:48:08 10° W 08:57:44 58° NNW 09:06:58 10° ENE daylight
08 Dec - 10:54:55 10° WNW 11:03:59 46° N 11:12:47 10° ENE daylight
08 Dec - 13:00:28 10° WNW 13:09:51 74° NNE 13:19:00 10° ESE daylight
08 Dec - 15:05:43 10° WNW 15:14:04 40° SW 15:22:23 10° SSE daylight
